{"data":{"norad_id":62139,"intl_designator":"2024-224A","name":"STARLINK-32529","alt_names":[],"object_type":"PAYLOAD","status":"ACTIVE","operator":null,"country":"US","launch_date":"2024-11-30","launch_site_code":"AFETR","launch_vehicle":null,"mission":null,"orbit_class":"UNKNOWN","rcs_meters":null,"size_class":null,"mass_kg":null,"dimensions":null,"purposes":["comms"],"wikipedia_slug":null,"has_3d_model":false,"image_url":null,"decayed_at":null,"tle_current":{"epoch":"2026-09-21T00:56:10.606560Z","epoch_age_seconds":135527,"freshness":"FRESH","line1":"1 62139U 24224A   26264.03901165  .00009267  00000+0  34584-3 0  9990","line2":"2 62139  43.0021 135.1173 0001008 260.4069  99.6669 15.27582869102292","mean_motion":15.27582869,"eccentricity":0.0001008,"inclination_deg":43.0021,"raan_deg":135.1173,"arg_perigee_deg":260.4069,"mean_anomaly_deg":99.6669,"bstar":0.00034584,"rev_number":10229,"period_min":94.266571668394,"perigee_km":482.34889854245,"apogee_km":483.73211192751,"semimajor_km":6861.177505235,"source":"CELESTRAK","updated_at":"2026-09-22T09:00:49.528907Z"}}}